Powrót do katalogu

STARLINK-5061

AktywnyŁącznośćVLEO
NORAD 54847·PAYLOAD·🇺🇸 United States

Wystrzelony Dec 28, 2022 z Cape Canaveral Space Force Station

Loading…

Następne Przeloty (najbliższe 24 godziny)

TLE

ŚwieżeSource: CelesTrak SupGP

Epoka: Sep 15, 2026, 02:25 UTC

1 54847C 22177AD  26258.10118056  .00031362  00000+0  11349-2 0  2584
2 54847  43.0019 120.5935 0001417 267.2263 263.2242 15.27593562    10

Śledź STARLINK-5061 w czasie rzeczywistym z AllMySat

Download on the App Store